Location: Ciula Mare
(45.6000°N, 22.8167°E)
Time: 11:20:29
(UTC+00:00)

Cosmos 1328 - Pass Details

Date: 03 February 2023
Orbit: 518 x 544 km, 82.5° (Epoch: 21 March)

Event Time Altitude Azimuth Distance (km) Brightness Sun altitude
Rises 16:08:47 0° 180° (S) 2,700 7.6 -6.0°
Reaches altitude 10° 16:10:57 10° 177° (S) 1,809 6.7 -6.3°
Maximum altitude 16:14:53 65° 96° (E) 603 3.8 -7.0°
Drops below altitude 10° 16:18:50 10° 15° (NNE) 1,810 6.2 -7.7°
Sets 16:21:00 0° 12° (NNE) 2,702 7.1 -8.0°
